Regional Weather Roundup
Issued by NWS

Home | Current Version | Previous Version | Graphics & Text | Print | Product List | Glossary On
Versions: 1 2 3 4 5 6 7 8 9 10 11 12 13 14 15 16 17 18 19 20 21 22 23 24 25 26 27 28 29 30 31 32 33 34 35 36 37 38 39 40 41 42 43 44 45 46 47 48 49 50
625
ASUS44 KMEG 270010
RWRTN
TENNESSEE HOURLY STATE WEATHER ROUNDUP
NATIONAL WEATHER SERVICE MEMPHIS TN
700 PM CDT WED JUL 26 2017

TNZ002-004-019-021-049-052-054-088>092-270100-
WEST TENNESSEE

CITY           SKY/WX    TMP DP  RH WIND       PRES   REMARKS
MEMPHIS INTL   PTSUNNY   91  73  55 W8        30.02S HX  99
NWS MEMPHIS      N/A     91 N/A N/A MISG        N/A
JACKSON        MOSUNNY   90  76  63 CALM      30.01S HX 101
SOMERVILLE       N/A     91  75  59 SW6       30.01R HX 102
COVINGTON      SUNNY     91  73  55 W8        30.00S HX 100
UNION CITY     SUNNY     88  79  74 CALM      29.98F HX 102
BOLIVAR        SUNNY     91  72  52 SW5       30.01S HX  98
PARIS          SUNNY     88  81  79 CALM      30.00S HX 105
HUNTINGDON     SUNNY     90  77  66 CALM      30.00R HX 102
LEXINGTON      SUNNY     86  73  66 SW7       30.02R HX  93
SAVANNAH       MOSUNNY   81  72  74 CALM      30.02F
$$

TNZ008-025-027-028-033-062-065-066-270100-
NORTH MIDDLE TENNESSEE

CITY           SKY/WX    TMP DP  RH WIND       PRES   REMARKS
NASHVILLE      MOCLDY    91  71  51 SW5       30.02S HX  97
PORTLAND       CLEAR     86  77  74 S3        30.02S HX  97
CLARKSVILLE    MOSUNNY   88  73  61 CALM      30.00S HX  95
SMYRNA         CLEAR     89  74  60 S3        30.03R HX  98
COOKEVILLE     CLEAR     86  77  74 CALM      30.05S HX  97
GALLATIN       CLEAR     86  81  84 CALM      30.04S HX 102
CROSSVILLE     PTCLDY    83  71  67 S3        30.12R
$$

TNZ061-075-076-078-094-096-097-270100-
SOUTH MIDDLE TENNESSEE

CITY           SKY/WX    TMP DP  RH WIND       PRES   REMARKS
FAYETTEVILLE   CLEAR     88  77  70 CALM      30.06R HX 100
TULLAHOMA      CLEAR     88  72  58 SW3       30.08R HX  94
WINCHESTER     CLEAR     90  72  55 CALM      30.07R HX  96
MCMINNVILLE    CLEAR     88  75  66 CALM      30.07R HX  97
COLUMBIA       SUNNY     88  73  62 S8        30.01R HX  96
SHELBYVILLE    CLEAR     81  77  89 E5        30.05R
$$

TNZ017-018-042-046-047-270100-
NORTHEAST TENNESSEE

CITY           SKY/WX    TMP DP  RH WIND       PRES   REMARKS
TRI CITIES     PTCLDY    87  64  46 N6        30.08S
ELIZABETHTON   CLEAR     82  70  65 CALM      30.09S
$$

TNZ012-013-036-069-073-074-270100-
CENTRAL EAST TENNESSEE

CITY           SKY/WX    TMP DP  RH WIND       PRES   REMARKS
KNOXVILLE      CLOUDY    90  67  46 W6        30.04S HX  93
OAK RIDGE      CLEAR     90  71  53 W3        30.06S HX  96
GATLINBURG     PTCLDY    91  64  40 CALM      30.04S HX  93
MORRISTOWN     CLEAR     88  68  51 NW5       30.06S HX  91
JACKSBORO      CLEAR     86  73  66 CALM      30.10R HX  93
$$

TNZ083-085-099-270100-
SOUTHEAST TENNESSEE

CITY           SKY/WX    TMP DP  RH WIND       PRES   REMARKS
CHATTANOOGA    PTCLDY    92  71  50 NW3       30.04R HX  98
DAYTON         CLEAR     90  79  70 CALM      30.04R HX 105
$$

SKY/WX REPORTED AS FAIR MEANS FEW OR NO CLOUDS BELOW
12 THOUSAND FEET.





USA.gov is the U.S. government's official web portal to all federal, state and local government web resources and services.